This is the latest recevied weather packets stored in our database for station/object N0MPM-4. If no packets are shown the sender has not sent any weather packets the latest 1 day(s).
| Time | Temp. | Humidity | Pressure | Rain* | Wind** | Luminosity | Snow |
|---|---|---|---|---|---|---|---|
| 1777999781 | 12.22° C | 47% | 1012.1 hPa | 0 mm | 0.89 m/s, 56° | - | - |
| 1777999481 | 12.78° C | 49% | 1012.2 hPa | 0 mm | 0.89 m/s, 300° | - | - |
| 1777999182 | 12.78° C | 45% | 1012 hPa | 0 mm | 0 m/s | - | - |
| 1777998882 | 13.33° C | 48% | 1012 hPa | 0 mm | 0 m/s | - | - |
| 1777998582 | 13.33° C | 48% | 1012 hPa | 0 mm | 0 m/s | - | - |
| 1777998282 | 12.78° C | 46% | 1012.1 hPa | 0 mm | 0 m/s | - | - |
| 1777997982 | 12.78° C | 48% | 1012.1 hPa | 0 mm | 0 m/s | - | - |
| 1777997682 | 12.22° C | 46% | 1012.1 hPa | 0 mm | 0 m/s | - | - |
| 1777997382 | 12.22° C | 43% | 1012.1 hPa | 0 mm | 0 m/s | - | - |
| 1777997082 | 12.22° C | 48% | 1011.8 hPa | 0 mm | 0 m/s | - | - |
| 1777996782 | 11.67° C | 51% | 1011.8 hPa | 0 mm | 0 m/s | - | - |
| 1777996482 | 11.11° C | 52% | 1011.8 hPa | 0 mm | 0 m/s | - | - |
| 1777996182 | 11.67° C | 50% | 1011.8 hPa | 0 mm | 0 m/s | - | - |
| 1777995882 | 11.67° C | 53% | 1011.7 hPa | 0 mm | 0 m/s | - | - |
| 1777995582 | 11.11° C | 50% | 1011.8 hPa | 0 mm | 0 m/s | - | - |
| 1777995282 | 11.11° C | 52% | 1011.8 hPa | 0 mm | 0 m/s | - | - |
| 1777994982 | 11.11° C | 50% | 1011.8 hPa | 0 mm | 0 m/s | - | - |
| 1777994682 | 10.56° C | 51% | 1011.7 hPa | 0 mm | 0 m/s | - | - |
| 1777994382 | 10.56° C | 48% | 1011.6 hPa | 0 mm | 0 m/s | - | - |
| 1777994082 | 10.56° C | 51% | 1011.6 hPa | 0 mm | 0 m/s | - | - |
| 1777993782 | 10.56° C | 52% | 1011.7 hPa | 0 mm | 0 m/s | - | - |
| 1777993482 | 10.56° C | 52% | 1011.7 hPa | 0 mm | 0 m/s | - | - |
| 1777993182 | 10.56° C | 49% | 1011.6 hPa | 0 mm | 0 m/s | - | - |
| 1777992882 | 10.56° C | 49% | 1011.7 hPa | 0 mm | 0 m/s | - | - |
| 1777992582 | 10.56° C | 52% | 1011.7 hPa | 0 mm | 0 m/s | - | - |
* Rain latest hour (hover to see other rain measurements)
** Current wind speed in m/s (hover to see current wind gust speed)